Weather in Namest nad Oslavou

Czech Republic     49°12′29″N   16°09′29″E
temp.,
°C
wind,
m/s
gust,
m/s
humid.,
%
clouds,
%
prec.,
mm/h
press.,
hPa
HPBL,
m
16 april, fri
fri1623:000nw61185100 0.0 1023576
02:000nw5108796 0.0 1022530
05:000nw598870 0.0 1022498
08:00+1nw687842 0.0 1022519
11:00+4nw5570100 0.0 1022940
14:00+4nw5675100 0.1 1022795
17:00+4nnw5780100 0.0 1021675
20:00+2nw3793100 0.0 1022449
17 april, sat
sat1723:00+2nw4796100 0.0 1022383
02:00+3nw4785100 0.0 1021531
05:00+2nw389067 0.0 1020382
08:00+3nw468079 0.0 1021463
11:00+4nnw3377100 0.0 1021805
14:00+6nnw3370100 0.1 10201019
17:00+6n347293 0.1 1019877
20:00+3n369193 0.1 1020270
18 april, sun
sun1823:00+3nnw2497100 0.1 1020486
02:00+3nnw2598100 0.1 1020330
05:00+3nnw2497100 0.0 1019395
08:00+4n2597100 0.2 1019472
11:00+6n3486100 0.1 1018700
14:00+7n3478100 0.3 1018759
17:00+7nne4582100 0.3 1018614
20:00+5n3590100 0.3 1018123
19 april, mon
mon1923:00+5nnw2485100 0.0 101887
02:00+4nnw3686100 0.0 1017158
05:00+3nnw3589100 0.0 1017115
08:00+6nnw3781100 0.0 1016268
11:00+8n5676100 0.2 1015846
14:00+7nnw468490 0.4 1015455
17:00+9nnw367998 0.1 1013728
20:00+7nne3691100 0.8 1014178
20 april, tue
tue2023:00+6nnw359299 0.2 1014121
02:00+4nnw339216 0.2 101461
05:00+3nw349367 0.0 101465
08:00+6nnw498395 0.0 1014354
11:00+11n455739 0.1 10131439
14:00+13wnw454783 0.4 10111998
17:00+12nnw455359 0.1 10101352
20:00+7n33784 0.2 101245